Location: Newark
(34.0667°N, 125.0833°E)
Time: 23:35:36
(UTC+00:00)

LightSail 2 - Visible Passes

Search period start: 08 December 2019 00:00
Search period end: 18 December 2019 00:00
Orbit: 696 x 730 km, 24.0° (Epoch: 08 December)

Date Brightness Start Highest point End Pass type
(mag) Time Alt. Az. Time Alt. Az. Time Alt. Az.
08 Dec 7.1 09:43:04 10° WSW 09:47:08 23° S 09:51:09 10° SE visible
08 Dec 7.8 11:29:52 10° SW 11:30:53 12° SSW 11:30:53 12° SSW visible
09 Dec 7.5 10:31:02 10° SW 10:34:05 16° SSW 10:36:44 11° SSE visible
10 Dec 7.4 09:32:33 10° WSW 09:36:10 19° SSW 09:39:46 10° SSE visible
11 Dec 7.9 10:21:45 10° SW 10:23:04 11° SSW 10:24:22 10° S visible
12 Dec 7.7 09:22:25 10° SW 09:25:08 14° SSW 09:27:49 10° SSE visible
